"Datum/tijd (MET)";"astronomisch [cm]"
2024-03-31 00:00;-62
2024-03-31 00:10;-61
2024-03-31 00:20;-60
2024-03-31 00:30;-59
2024-03-31 00:40;-59
2024-03-31 00:50;-58
2024-03-31 01:00;-58
2024-03-31 01:10;-58
2024-03-31 01:20;-58
2024-03-31 01:30;-58
2024-03-31 01:40;-57
2024-03-31 01:50;-56
2024-03-31 03:00;-56
2024-03-31 03:10;-54
2024-03-31 03:20;-53
2024-03-31 03:30;-51
2024-03-31 03:40;-49
2024-03-31 03:50;-46
2024-03-31 04:00;-42
2024-03-31 04:10;-37
2024-03-31 04:20;-32
2024-03-31 04:30;-25
2024-03-31 04:40;-18
2024-03-31 04:50;-11
2024-03-31 05:00;-2
2024-03-31 05:10;7
2024-03-31 05:20;18
2024-03-31 05:30;29
2024-03-31 05:40;41
2024-03-31 05:50;53
2024-03-31 06:00;66
2024-03-31 06:10;79
2024-03-31 06:20;92
2024-03-31 06:30;103
2024-03-31 06:40;112
2024-03-31 06:50;120
2024-03-31 07:00;124
2024-03-31 07:10;126
2024-03-31 07:20;126
2024-03-31 07:30;123
2024-03-31 07:40;118
2024-03-31 07:50;112
2024-03-31 08:00;106
2024-03-31 08:10;99
2024-03-31 08:20;93
2024-03-31 08:30;87
2024-03-31 08:40;82
2024-03-31 08:50;77
2024-03-31 09:00;72
2024-03-31 09:10;66
2024-03-31 09:20;60
2024-03-31 09:30;53
2024-03-31 09:40;46
2024-03-31 09:50;37
2024-03-31 10:00;27
2024-03-31 10:10;17
2024-03-31 10:20;7
2024-03-31 10:30;-4
2024-03-31 10:40;-14
2024-03-31 10:50;-24
2024-03-31 11:00;-33
2024-03-31 11:10;-42
2024-03-31 11:20;-49
2024-03-31 11:30;-56
2024-03-31 11:40;-62
2024-03-31 11:50;-67
2024-03-31 12:00;-70
2024-03-31 12:10;-73
2024-03-31 12:20;-74
2024-03-31 12:30;-74
2024-03-31 12:40;-73
2024-03-31 12:50;-72
2024-03-31 13:00;-71
2024-03-31 13:10;-69
2024-03-31 13:20;-68
2024-03-31 13:30;-66
2024-03-31 13:40;-66
2024-03-31 13:50;-65
2024-03-31 14:00;-65
2024-03-31 14:10;-65
2024-03-31 14:20;-65
2024-03-31 14:30;-65
2024-03-31 14:40;-65
2024-03-31 14:50;-64
2024-03-31 15:00;-64
2024-03-31 15:10;-63
2024-03-31 15:20;-61
2024-03-31 15:30;-60
2024-03-31 15:40;-58
2024-03-31 15:50;-56
2024-03-31 16:00;-53
2024-03-31 16:10;-51
2024-03-31 16:20;-47
2024-03-31 16:30;-43
2024-03-31 16:40;-38
2024-03-31 16:50;-33
2024-03-31 17:00;-27
2024-03-31 17:10;-20
2024-03-31 17:20;-12
2024-03-31 17:30;-3
2024-03-31 17:40;7
2024-03-31 17:50;18
2024-03-31 18:00;29
2024-03-31 18:10;42
2024-03-31 18:20;55
2024-03-31 18:30;67
2024-03-31 18:40;79
2024-03-31 18:50;90
2024-03-31 19:00;99
2024-03-31 19:10;106
2024-03-31 19:20;111
2024-03-31 19:30;113
2024-03-31 19:40;112
2024-03-31 19:50;110
2024-03-31 20:00;106
2024-03-31 20:10;100
2024-03-31 20:20;94
2024-03-31 20:30;88
2024-03-31 20:40;82
2024-03-31 20:50;77
2024-03-31 21:00;71
2024-03-31 21:10;66
2024-03-31 21:20;60
2024-03-31 21:30;55
2024-03-31 21:40;49
2024-03-31 21:50;42
2024-03-31 22:00;35
2024-03-31 22:10;27
2024-03-31 22:20;18
2024-03-31 22:30;10
2024-03-31 22:40;1
2024-03-31 22:50;-8
2024-03-31 23:00;-17
2024-03-31 23:10;-26
2024-03-31 23:20;-34
2024-03-31 23:30;-42
2024-03-31 23:40;-49
2024-03-31 23:50;-56
2024-04-01 00:00;-62
2024-04-01 00:10;-67
2024-04-01 00:20;-71
2024-04-01 00:30;-73
2024-04-01 00:40;-74
2024-04-01 00:50;-75
2024-04-01 01:00;-74
2024-04-01 01:10;-73
2024-04-01 01:20;-72
2024-04-01 01:30;-70
2024-04-01 01:40;-69
2024-04-01 01:50;-68
2024-04-01 02:00;-67
2024-04-01 02:10;-66
2024-04-01 02:20;-65
2024-04-01 02:30;-64
2024-04-01 02:40;-63
2024-04-01 02:50;-62
2024-04-01 03:00;-61
2024-04-01 03:10;-60
2024-04-01 03:20;-59
2024-04-01 03:30;-57
2024-04-01 03:40;-56
2024-04-01 03:50;-55
2024-04-01 04:00;-54
2024-04-01 04:10;-52
2024-04-01 04:20;-50
2024-04-01 04:30;-46
2024-04-01 04:40;-43
2024-04-01 04:50;-38
2024-04-01 05:00;-32
2024-04-01 05:10;-26
2024-04-01 05:20;-18
2024-04-01 05:30;-10
2024-04-01 05:40;-1
2024-04-01 05:50;8
2024-04-01 06:00;19
2024-04-01 06:10;30
2024-04-01 06:20;41
2024-04-01 06:30;53
2024-04-01 06:40;65
2024-04-01 06:50;78
2024-04-01 07:00;89
2024-04-01 07:10;99
2024-04-01 07:20;108
2024-04-01 07:30;115
2024-04-01 07:40;119
2024-04-01 07:50;121
2024-04-01 08:00;120
2024-04-01 08:10;118
2024-04-01 08:20;114
2024-04-01 08:30;109
2024-04-01 08:40;103
2024-04-01 08:50;98
2024-04-01 09:00;92
2024-04-01 09:10;87
2024-04-01 09:20;81
2024-04-01 09:30;77
2024-04-01 09:40;72
2024-04-01 09:50;66
2024-04-01 10:00;60
2024-04-01 10:10;54
2024-04-01 10:20;47
2024-04-01 10:30;39
2024-04-01 10:40;31
2024-04-01 10:50;22
2024-04-01 11:00;13
2024-04-01 11:10;4
2024-04-01 11:20;-5
2024-04-01 11:30;-14
2024-04-01 11:40;-22
2024-04-01 11:50;-30
2024-04-01 12:00;-38
2024-04-01 12:10;-44
2024-04-01 12:20;-50
2024-04-01 12:30;-55
2024-04-01 12:40;-60
2024-04-01 12:50;-63
2024-04-01 13:00;-65
2024-04-01 13:10;-66
2024-04-01 13:20;-67
2024-04-01 13:30;-67
2024-04-01 13:40;-66
2024-04-01 13:50;-66
2024-04-01 14:00;-66
2024-04-01 14:10;-65
2024-04-01 14:20;-65
2024-04-01 14:30;-65
2024-04-01 14:40;-65
2024-04-01 14:50;-65
2024-04-01 15:00;-65
2024-04-01 15:10;-65
2024-04-01 15:20;-64
2024-04-01 15:30;-63
2024-04-01 15:40;-61
2024-04-01 15:50;-60
2024-04-01 16:00;-58
2024-04-01 16:10;-57
2024-04-01 16:20;-55
2024-04-01 16:30;-53
2024-04-01 16:40;-51
2024-04-01 16:50;-48
2024-04-01 17:00;-45
2024-04-01 17:10;-42
2024-04-01 17:20;-38
2024-04-01 17:30;-33
2024-04-01 17:40;-27
2024-04-01 17:50;-21
2024-04-01 18:00;-14
2024-04-01 18:10;-6
2024-04-01 18:20;2
2024-04-01 18:30;12
2024-04-01 18:40;22
2024-04-01 18:50;33
2024-04-01 19:00;43
2024-04-01 19:10;54
2024-04-01 19:20;65
2024-04-01 19:30;74
2024-04-01 19:40;82
2024-04-01 19:50;89
2024-04-01 20:00;94
2024-04-01 20:10;96
2024-04-01 20:20;97
2024-04-01 20:30;96
2024-04-01 20:40;94
2024-04-01 20:50;91
2024-04-01 21:00;87
2024-04-01 21:10;82
2024-04-01 21:20;78
2024-04-01 21:30;73
2024-04-01 21:40;68
2024-04-01 21:50;64
2024-04-01 22:00;58
2024-04-01 22:10;53
2024-04-01 22:20;47
2024-04-01 22:30;41
2024-04-01 22:40;34
2024-04-01 22:50;27
2024-04-01 23:00;20
2024-04-01 23:10;12
2024-04-01 23:20;5
2024-04-01 23:30;-3
2024-04-01 23:40;-10
2024-04-01 23:50;-18
2024-04-02 00:00;-26
2024-04-02 00:10;-33
2024-04-02 00:20;-40
2024-04-02 00:30;-47
2024-04-02 00:40;-53
2024-04-02 00:50;-58
2024-04-02 01:00;-63
2024-04-02 01:10;-66
2024-04-02 01:20;-69
2024-04-02 01:30;-70
2024-04-02 01:40;-71
2024-04-02 01:50;-71
2024-04-02 02:00;-71
2024-04-02 02:10;-71
2024-04-02 02:20;-71
2024-04-02 02:30;-70
2024-04-02 02:40;-70
2024-04-02 02:50;-69
2024-04-02 03:00;-68
2024-04-02 03:10;-67
2024-04-02 03:20;-66
2024-04-02 03:30;-65
2024-04-02 03:40;-63
2024-04-02 03:50;-62
2024-04-02 04:00;-60
2024-04-02 04:10;-59
2024-04-02 04:20;-58
2024-04-02 04:30;-56
2024-04-02 04:40;-55
2024-04-02 04:50;-54
2024-04-02 05:00;-52
2024-04-02 05:10;-50
2024-04-02 05:20;-47
2024-04-02 05:30;-43
2024-04-02 05:40;-38
2024-04-02 05:50;-32
2024-04-02 06:00;-26
2024-04-02 06:10;-19
2024-04-02 06:20;-11
2024-04-02 06:30;-2
2024-04-02 06:40;7
2024-04-02 06:50;17
2024-04-02 07:00;27
2024-04-02 07:10;38
2024-04-02 07:20;49
2024-04-02 07:30;59
2024-04-02 07:40;70
2024-04-02 07:50;79
2024-04-02 08:00;88
2024-04-02 08:10;95
2024-04-02 08:20;100
2024-04-02 08:30;103
2024-04-02 08:40;105
2024-04-02 08:50;105
2024-04-02 09:00;103
2024-04-02 09:10;101
2024-04-02 09:20;98
2024-04-02 09:30;95
2024-04-02 09:40;91
2024-04-02 09:50;87
2024-04-02 10:00;84
2024-04-02 10:10;80
2024-04-02 10:20;76
2024-04-02 10:30;72
2024-04-02 10:40;67
2024-04-02 10:50;61
2024-04-02 11:00;55
2024-04-02 11:10;49
2024-04-02 11:20;43
2024-04-02 11:30;36
2024-04-02 11:40;29
2024-04-02 11:50;22
2024-04-02 12:00;15
2024-04-02 12:10;8
2024-04-02 12:20;1
2024-04-02 12:30;-6
2024-04-02 12:40;-13
2024-04-02 12:50;-20
2024-04-02 13:00;-26
2024-04-02 13:10;-32
2024-04-02 13:20;-37
2024-04-02 13:30;-41
2024-04-02 13:40;-45
2024-04-02 13:50;-48
2024-04-02 14:00;-50
2024-04-02 14:10;-51
2024-04-02 14:20;-53
2024-04-02 14:30;-54
2024-04-02 14:40;-55
2024-04-02 14:50;-57
2024-04-02 15:00;-58
2024-04-02 15:10;-59
2024-04-02 15:20;-60
2024-04-02 15:30;-60
2024-04-02 15:40;-61
2024-04-02 15:50;-60
2024-04-02 16:00;-60
2024-04-02 16:10;-59
2024-04-02 16:20;-58
2024-04-02 16:30;-57
2024-04-02 16:40;-55
2024-04-02 16:50;-54
2024-04-02 17:00;-53
2024-04-02 17:10;-51
2024-04-02 17:20;-50
2024-04-02 17:30;-48
2024-04-02 17:40;-46
2024-04-02 17:50;-44
2024-04-02 18:00;-41
2024-04-02 18:10;-37
2024-04-02 18:20;-33
2024-04-02 18:30;-28
2024-04-02 18:40;-23
2024-04-02 18:50;-17
2024-04-02 19:00;-11
2024-04-02 19:10;-4
2024-04-02 19:20;4
2024-04-02 19:30;12
2024-04-02 19:40;20
2024-04-02 19:50;29
2024-04-02 20:00;37
2024-04-02 20:10;45
2024-04-02 20:20;52
2024-04-02 20:30;59
2024-04-02 20:40;64
2024-04-02 20:50;68
2024-04-02 21:00;71
2024-04-02 21:10;73
2024-04-02 21:20;74
2024-04-02 21:30;74
2024-04-02 21:40;73
2024-04-02 21:50;72
2024-04-02 22:00;70
2024-04-02 22:10;68
2024-04-02 22:20;66
2024-04-02 22:30;63
2024-04-02 22:40;59
2024-04-02 22:50;55
2024-04-02 23:00;50
2024-04-02 23:10;45
2024-04-02 23:20;40
2024-04-02 23:30;35
2024-04-02 23:40;29
2024-04-02 23:50;23
2024-04-03 00:00;17
2024-04-03 00:10;12
2024-04-03 00:20;6
2024-04-03 00:30;-1
2024-04-03 00:40;-7
2024-04-03 00:50;-13
2024-04-03 01:00;-20
2024-04-03 01:10;-26
2024-04-03 01:20;-32
2024-04-03 01:30;-38
2024-04-03 01:40;-43
2024-04-03 01:50;-48
2024-04-03 02:00;-52
2024-04-03 02:10;-55
2024-04-03 02:20;-58
2024-04-03 02:30;-60
2024-04-03 02:40;-62
2024-04-03 02:50;-63
2024-04-03 03:00;-64
2024-04-03 03:10;-66
2024-04-03 03:20;-66
2024-04-03 03:30;-67
2024-04-03 03:40;-67
2024-04-03 03:50;-67
2024-04-03 04:00;-66
2024-04-03 04:10;-66
2024-04-03 04:20;-64
2024-04-03 04:30;-63
2024-04-03 04:40;-62
2024-04-03 04:50;-60
2024-04-03 05:00;-59
2024-04-03 05:10;-58
2024-04-03 05:20;-58
2024-04-03 05:30;-57
2024-04-03 05:40;-56
2024-04-03 05:50;-54
2024-04-03 06:00;-52
2024-04-03 06:10;-50
2024-04-03 06:20;-47
2024-04-03 06:30;-43
2024-04-03 06:40;-38
2024-04-03 06:50;-33
2024-04-03 07:00;-27
2024-04-03 07:10;-21
2024-04-03 07:20;-14
2024-04-03 07:30;-6
2024-04-03 07:40;2
2024-04-03 07:50;10
2024-04-03 08:00;19
2024-04-03 08:10;28
2024-04-03 08:20;37
2024-04-03 08:30;45
2024-04-03 08:40;54
2024-04-03 08:50;61
2024-04-03 09:00;68
2024-04-03 09:10;73
2024-04-03 09:20;77
2024-04-03 09:30;81
2024-04-03 09:40;83
2024-04-03 09:50;84
2024-04-03 10:00;85
2024-04-03 10:10;86
2024-04-03 10:20;86
2024-04-03 10:30;86
2024-04-03 10:40;85
2024-04-03 10:50;84
2024-04-03 11:00;82
2024-04-03 11:10;80
2024-04-03 11:20;77
2024-04-03 11:30;74
2024-04-03 11:40;70
2024-04-03 11:50;65
2024-04-03 12:00;61
2024-04-03 12:10;56
2024-04-03 12:20;51
2024-04-03 12:30;46
2024-04-03 12:40;41
2024-04-03 12:50;36
2024-04-03 13:00;31
2024-04-03 13:10;25
2024-04-03 13:20;19
2024-04-03 13:30;13
2024-04-03 13:40;7
2024-04-03 13:50;1
2024-04-03 14:00;-4
2024-04-03 14:10;-10
2024-04-03 14:20;-15
2024-04-03 14:30;-19
2024-04-03 14:40;-23
2024-04-03 14:50;-27
2024-04-03 15:00;-31
2024-04-03 15:10;-34
2024-04-03 15:20;-37
2024-04-03 15:30;-40
2024-04-03 15:40;-43
2024-04-03 15:50;-45
2024-04-03 16:00;-48
2024-04-03 16:10;-50
2024-04-03 16:20;-51
2024-04-03 16:30;-53
2024-04-03 16:40;-53
2024-04-03 16:50;-53
2024-04-03 17:00;-53
2024-04-03 17:10;-52
2024-04-03 17:20;-52
2024-04-03 17:30;-51
2024-04-03 17:40;-50
2024-04-03 17:50;-50
2024-04-03 18:00;-49
2024-04-03 18:10;-48
2024-04-03 18:20;-47
2024-04-03 18:30;-46
2024-04-03 18:40;-44
2024-04-03 18:50;-42
2024-04-03 19:00;-40
2024-04-03 19:10;-38
2024-04-03 19:20;-35
2024-04-03 19:30;-31
2024-04-03 19:40;-28
2024-04-03 19:50;-23
2024-04-03 20:00;-19
2024-04-03 20:10;-14
2024-04-03 20:20;-9
2024-04-03 20:30;-3
2024-04-03 20:40;3
2024-04-03 20:50;9
2024-04-03 21:00;15
2024-04-03 21:10;21
2024-04-03 21:20;27
2024-04-03 21:30;32
2024-04-03 21:40;37
2024-04-03 21:50;42
2024-04-03 22:00;46
2024-04-03 22:10;49
2024-04-03 22:20;53
2024-04-03 22:30;55
2024-04-03 22:40;57
2024-04-03 22:50;58
2024-04-03 23:00;59
2024-04-03 23:10;59
2024-04-03 23:20;59
2024-04-03 23:30;58
2024-04-03 23:40;56
2024-04-03 23:50;53
2024-04-04 00:00;50
2024-04-04 00:10;47
2024-04-04 00:20;43
2024-04-04 00:30;40
2024-04-04 00:40;36
2024-04-04 00:50;32
2024-04-04 01:00;27
2024-04-04 01:10;23
2024-04-04 01:20;18
2024-04-04 01:30;13
2024-04-04 01:40;7
2024-04-04 01:50;2
2024-04-04 02:00;-4
2024-04-04 02:10;-10
2024-04-04 02:20;-16
2024-04-04 02:30;-21
2024-04-04 02:40;-27
2024-04-04 02:50;-32
2024-04-04 03:00;-36
2024-04-04 03:10;-41
2024-04-04 03:20;-45
2024-04-04 03:30;-48
2024-04-04 03:40;-52
2024-04-04 03:50;-55
2024-04-04 04:00;-58
2024-04-04 04:10;-60
2024-04-04 04:20;-62
2024-04-04 04:30;-64
2024-04-04 04:40;-65
2024-04-04 04:50;-65
2024-04-04 05:00;-65
2024-04-04 05:10;-64
2024-04-04 05:20;-64
2024-04-04 05:30;-63
2024-04-04 05:40;-62
2024-04-04 05:50;-61
2024-04-04 06:00;-60
2024-04-04 06:10;-60
2024-04-04 06:20;-59
2024-04-04 06:30;-58
2024-04-04 06:40;-57
2024-04-04 06:50;-56
2024-04-04 07:00;-55
2024-04-04 07:10;-53
2024-04-04 07:20;-50
2024-04-04 07:30;-47
2024-04-04 07:40;-44
2024-04-04 07:50;-41
2024-04-04 08:00;-37
2024-04-04 08:10;-32
2024-04-04 08:20;-27
2024-04-04 08:30;-22
2024-04-04 08:40;-15
2024-04-04 08:50;-9
2024-04-04 09:00;-2
2024-04-04 09:10;5
2024-04-04 09:20;13
2024-04-04 09:30;20
2024-04-04 09:40;28
2024-04-04 09:50;35
2024-04-04 10:00;42
2024-04-04 10:10;48
2024-04-04 10:20;54
2024-04-04 10:30;59
2024-04-04 10:40;64
2024-04-04 10:50;69
2024-04-04 11:00;74
2024-04-04 11:10;78
2024-04-04 11:20;81
2024-04-04 11:30;84
2024-04-04 11:40;86
2024-04-04 11:50;88
2024-04-04 12:00;88
2024-04-04 12:10;88
2024-04-04 12:20;86
2024-04-04 12:30;84
2024-04-04 12:40;82
2024-04-04 12:50;79
2024-04-04 13:00;76
2024-04-04 13:10;73
2024-04-04 13:20;70
2024-04-04 13:30;66
2024-04-04 13:40;62
2024-04-04 13:50;58
2024-04-04 14:00;53
2024-04-04 14:10;48
2024-04-04 14:20;43
2024-04-04 14:30;37
2024-04-04 14:40;31
2024-04-04 14:50;25
2024-04-04 15:00;19
2024-04-04 15:10;13
2024-04-04 15:20;7
2024-04-04 15:30;2
2024-04-04 15:40;-4
2024-04-04 15:50;-9
2024-04-04 16:00;-14
2024-04-04 16:10;-19
2024-04-04 16:20;-24
2024-04-04 16:30;-28
2024-04-04 16:40;-33
2024-04-04 16:50;-37
2024-04-04 17:00;-40
2024-04-04 17:10;-43
2024-04-04 17:20;-45
2024-04-04 17:30;-47
2024-04-04 17:40;-47
2024-04-04 17:50;-48
2024-04-04 18:00;-48
2024-04-04 18:10;-48
2024-04-04 18:20;-47
2024-04-04 18:30;-47
2024-04-04 18:40;-47
2024-04-04 18:50;-47
2024-04-04 19:00;-47
2024-04-04 19:10;-46
2024-04-04 19:20;-46
2024-04-04 19:30;-46
2024-04-04 19:40;-45
2024-04-04 19:50;-45
2024-04-04 20:00;-44
2024-04-04 20:10;-43
2024-04-04 20:20;-41
2024-04-04 20:30;-40
2024-04-04 20:40;-38
2024-04-04 20:50;-36
2024-04-04 21:00;-33
2024-04-04 21:10;-30
2024-04-04 21:20;-27
2024-04-04 21:30;-23
2024-04-04 21:40;-19
2024-04-04 21:50;-14
2024-04-04 22:00;-9
2024-04-04 22:10;-3
2024-04-04 22:20;3
2024-04-04 22:30;9
2024-04-04 22:40;15
2024-04-04 22:50;21
2024-04-04 23:00;27
2024-04-04 23:10;32
2024-04-04 23:20;38
2024-04-04 23:30;43
2024-04-04 23:40;48
2024-04-04 23:50;53
2024-04-05 00:00;56
2024-04-05 00:10;59
2024-04-05 00:20;61
2024-04-05 00:30;62
2024-04-05 00:40;62
2024-04-05 00:50;61
2024-04-05 01:00;60
2024-04-05 01:10;58
2024-04-05 01:20;56
2024-04-05 01:30;53
2024-04-05 01:40;50
2024-04-05 01:50;46
2024-04-05 02:00;43
2024-04-05 02:10;39
2024-04-05 02:20;34
2024-04-05 02:30;30
2024-04-05 02:40;25
2024-04-05 02:50;19
2024-04-05 03:00;13
2024-04-05 03:10;7
2024-04-05 03:20;1
2024-04-05 03:30;-6
2024-04-05 03:40;-12
2024-04-05 03:50;-18
2024-04-05 04:00;-25
2024-04-05 04:10;-31
2024-04-05 04:20;-36
2024-04-05 04:30;-42
2024-04-05 04:40;-47
2024-04-05 04:50;-52
2024-04-05 05:00;-56
2024-04-05 05:10;-60
2024-04-05 05:20;-63
2024-04-05 05:30;-65
2024-04-05 05:40;-67
2024-04-05 05:50;-67
2024-04-05 06:00;-67
2024-04-05 06:10;-67
2024-04-05 06:20;-66
2024-04-05 06:30;-65
2024-04-05 06:40;-64
2024-04-05 06:50;-63
2024-04-05 07:00;-62
2024-04-05 07:10;-61
2024-04-05 07:20;-61
2024-04-05 07:30;-60
2024-04-05 07:40;-60
2024-04-05 07:50;-59
2024-04-05 08:00;-59
2024-04-05 08:10;-58
2024-04-05 08:20;-57
2024-04-05 08:30;-56
2024-04-05 08:40;-55
2024-04-05 08:50;-53
2024-04-05 09:00;-51
2024-04-05 09:10;-48
2024-04-05 09:20;-44
2024-04-05 09:30;-40
2024-04-05 09:40;-35
2024-04-05 09:50;-30
2024-04-05 10:00;-24
2024-04-05 10:10;-17
2024-04-05 10:20;-10
2024-04-05 10:30;-3
2024-04-05 10:40;5
2024-04-05 10:50;13
2024-04-05 11:00;21
2024-04-05 11:10;30
2024-04-05 11:20;38
2024-04-05 11:30;47
2024-04-05 11:40;55
2024-04-05 11:50;64
2024-04-05 12:00;72
2024-04-05 12:10;80
2024-04-05 12:20;87
2024-04-05 12:30;93
2024-04-05 12:40;97
2024-04-05 12:50;101
2024-04-05 13:00;102
2024-04-05 13:10;103
2024-04-05 13:20;102
2024-04-05 13:30;101
2024-04-05 13:40;99
2024-04-05 13:50;96
2024-04-05 14:00;94
2024-04-05 14:10;91
2024-04-05 14:20;88
2024-04-05 14:30;84
2024-04-05 14:40;81
2024-04-05 14:50;77
2024-04-05 15:00;72
2024-04-05 15:10;67
2024-04-05 15:20;62
2024-04-05 15:30;56
2024-04-05 15:40;49
2024-04-05 15:50;42
2024-04-05 16:00;36
2024-04-05 16:10;29
2024-04-05 16:20;22
2024-04-05 16:30;15
2024-04-05 16:40;8
2024-04-05 16:50;1
2024-04-05 17:00;-5
2024-04-05 17:10;-12
2024-04-05 17:20;-18
2024-04-05 17:30;-24
2024-04-05 17:40;-30
2024-04-05 17:50;-35
2024-04-05 18:00;-39
2024-04-05 18:10;-42
2024-04-05 18:20;-44
2024-04-05 18:30;-45
2024-04-05 18:40;-45
2024-04-05 18:50;-45
2024-04-05 19:00;-45
2024-04-05 19:10;-44
2024-04-05 19:20;-44
2024-04-05 19:30;-44
2024-04-05 19:40;-44
2024-04-05 19:50;-44
2024-04-05 20:00;-45
2024-04-05 20:10;-46
2024-04-05 20:20;-46
2024-04-05 20:30;-47
2024-04-05 20:40;-48
2024-04-05 20:50;-48
2024-04-05 21:00;-48
2024-04-05 21:10;-48
2024-04-05 21:20;-48
2024-04-05 21:30;-48
2024-04-05 21:40;-48
2024-04-05 21:50;-47
2024-04-05 22:00;-45
2024-04-05 22:10;-43
2024-04-05 22:20;-41
2024-04-05 22:30;-38
2024-04-05 22:40;-34
2024-04-05 22:50;-29
2024-04-05 23:00;-24
2024-04-05 23:10;-19
2024-04-05 23:20;-13
2024-04-05 23:30;-6
2024-04-05 23:40;1
2024-04-05 23:50;9
2024-04-06 00:00;17
2024-04-06 00:10;26
2024-04-06 00:20;35
2024-04-06 00:30;43
2024-04-06 00:40;51
2024-04-06 00:50;59
2024-04-06 01:00;65
2024-04-06 01:10;70
2024-04-06 01:20;74
2024-04-06 01:30;76
2024-04-06 01:40;77
2024-04-06 01:50;76
2024-04-06 02:00;74
2024-04-06 02:10;72
2024-04-06 02:20;69
2024-04-06 02:30;66
2024-04-06 02:40;63
2024-04-06 02:50;60
2024-04-06 03:00;56
2024-04-06 03:10;52
2024-04-06 03:20;48
2024-04-06 03:30;43
2024-04-06 03:40;38
2024-04-06 03:50;32
2024-04-06 04:00;25
2024-04-06 04:10;17
2024-04-06 04:20;9
2024-04-06 04:30;1
2024-04-06 04:40;-7
2024-04-06 04:50;-15
2024-04-06 05:00;-23
2024-04-06 05:10;-31
2024-04-06 05:20;-38
2024-04-06 05:30;-46
2024-04-06 05:40;-52
2024-04-06 05:50;-58
2024-04-06 06:00;-63
2024-04-06 06:10;-68
2024-04-06 06:20;-71
2024-04-06 06:30;-73
2024-04-06 06:40;-74
2024-04-06 06:50;-73
2024-04-06 07:00;-72
2024-04-06 07:10;-70
2024-04-06 07:20;-68
2024-04-06 07:30;-66
2024-04-06 07:40;-64
2024-04-06 07:50;-63
2024-04-06 08:00;-62
2024-04-06 08:10;-62
2024-04-06 08:20;-62
2024-04-06 08:30;-62
2024-04-06 08:40;-63
2024-04-06 08:50;-64
2024-04-06 09:00;-64
2024-04-06 09:10;-65
2024-04-06 09:20;-65
2024-04-06 09:30;-65
2024-04-06 09:40;-65
2024-04-06 09:50;-64
2024-04-06 10:00;-62
2024-04-06 10:10;-60
2024-04-06 10:20;-57
2024-04-06 10:30;-54
2024-04-06 10:40;-49
2024-04-06 10:50;-44
2024-04-06 11:00;-38
2024-04-06 11:10;-32
2024-04-06 11:20;-25
2024-04-06 11:30;-17
2024-04-06 11:40;-8
2024-04-06 11:50;1
2024-04-06 12:00;11
2024-04-06 12:10;22
2024-04-06 12:20;34
2024-04-06 12:30;46
2024-04-06 12:40;59
2024-04-06 12:50;72
2024-04-06 13:00;83
2024-04-06 13:10;94
2024-04-06 13:20;103
2024-04-06 13:30;111
2024-04-06 13:40;116
2024-04-06 13:50;119
2024-04-06 14:00;120
2024-04-06 14:10;119
2024-04-06 14:20;117
2024-04-06 14:30;114
2024-04-06 14:40;111
2024-04-06 14:50;107
2024-04-06 15:00;104
2024-04-06 15:10;101
2024-04-06 15:20;98
2024-04-06 15:30;95
2024-04-06 15:40;92
2024-04-06 15:50;88
2024-04-06 16:00;83
2024-04-06 16:10;77
2024-04-06 16:20;71
2024-04-06 16:30;64
2024-04-06 16:40;56
2024-04-06 16:50;48
2024-04-06 17:00;40
2024-04-06 17:10;32
2024-04-06 17:20;24
2024-04-06 17:30;16
2024-04-06 17:40;7
2024-04-06 17:50;-1
2024-04-06 18:00;-9
2024-04-06 18:10;-17
2024-04-06 18:20;-24
2024-04-06 18:30;-30
2024-04-06 18:40;-36
2024-04-06 18:50;-40
2024-04-06 19:00;-42
2024-04-06 19:10;-44
2024-04-06 19:20;-44
2024-04-06 19:30;-44
2024-04-06 19:40;-43
2024-04-06 19:50;-42
2024-04-06 20:00;-41
2024-04-06 20:10;-40
2024-04-06 20:20;-40
2024-04-06 20:30;-41
2024-04-06 20:40;-42
2024-04-06 20:50;-43
2024-04-06 21:00;-44
2024-04-06 21:10;-46
2024-04-06 21:20;-47
2024-04-06 21:30;-48
2024-04-06 21:40;-49
2024-04-06 21:50;-50
2024-04-06 22:00;-50
2024-04-06 22:10;-50
2024-04-06 22:20;-51
2024-04-06 22:30;-51
2024-04-06 22:40;-50
2024-04-06 22:50;-50
2024-04-06 23:00;-48
2024-04-06 23:10;-47
2024-04-06 23:20;-45
2024-04-06 23:30;-42
2024-04-06 23:40;-39
2024-04-06 23:50;-35
2024-04-07 00:00;-30
2024-04-07 00:10;-24
2024-04-07 00:20;-18
2024-04-07 00:30;-10
2024-04-07 00:40;0
2024-04-07 00:50;10
2024-04-07 01:00;22
2024-04-07 01:10;34
2024-04-07 01:20;47
2024-04-07 01:30;58
2024-04-07 01:40;69
2024-04-07 01:50;78
2024-04-07 02:00;85
2024-04-07 02:10;90
2024-04-07 02:20;92
2024-04-07 02:30;92
2024-04-07 02:40;91
2024-04-07 02:50;88
2024-04-07 03:00;85
2024-04-07 03:10;81
2024-04-07 03:20;77
2024-04-07 03:30;74
2024-04-07 03:40;71
2024-04-07 03:50;68
2024-04-07 04:00;64
2024-04-07 04:10;60
2024-04-07 04:20;55
2024-04-07 04:30;49
2024-04-07 04:40;42
2024-04-07 04:50;34
2024-04-07 05:00;26
2024-04-07 05:10;16
2024-04-07 05:20;6
2024-04-07 05:30;-4
2024-04-07 05:40;-14
2024-04-07 05:50;-23
2024-04-07 06:00;-33
2024-04-07 06:10;-42
2024-04-07 06:20;-51
2024-04-07 06:30;-59
2024-04-07 06:40;-66
2024-04-07 06:50;-72
2024-04-07 07:00;-77
2024-04-07 07:10;-80
2024-04-07 07:20;-81
2024-04-07 07:30;-81
2024-04-07 07:40;-79
2024-04-07 07:50;-76
2024-04-07 08:00;-73
2024-04-07 08:10;-70
2024-04-07 08:20;-67
2024-04-07 08:30;-64
2024-04-07 08:40;-63
2024-04-07 08:50;-62
2024-04-07 09:00;-62
2024-04-07 09:10;-63
2024-04-07 09:20;-64
2024-04-07 09:30;-66
2024-04-07 09:40;-67
2024-04-07 09:50;-68
2024-04-07 10:00;-70
2024-04-07 10:10;-70
2024-04-07 10:20;-71
2024-04-07 10:30;-71
2024-04-07 10:40;-70
2024-04-07 10:50;-69
2024-04-07 11:00;-67
2024-04-07 11:10;-65
2024-04-07 11:20;-62
2024-04-07 11:30;-59
2024-04-07 11:40;-55
2024-04-07 11:50;-50
2024-04-07 12:00;-44
2024-04-07 12:10;-38
2024-04-07 12:20;-30
2024-04-07 12:30;-22
2024-04-07 12:40;-11
2024-04-07 12:50;0
2024-04-07 13:00;14
2024-04-07 13:10;28
2024-04-07 13:20;44
2024-04-07 13:30;61
2024-04-07 13:40;77
2024-04-07 13:50;92
2024-04-07 14:00;106
2024-04-07 14:10;117
2024-04-07 14:20;125
2024-04-07 14:30;131
2024-04-07 14:40;133
2024-04-07 14:50;132
2024-04-07 15:00;130
2024-04-07 15:10;126
2024-04-07 15:20;121
2024-04-07 15:30;117
2024-04-07 15:40;113
2024-04-07 15:50;109
2024-04-07 16:00;106
2024-04-07 16:10;103
2024-04-07 16:20;101
2024-04-07 16:30;97
2024-04-07 16:40;94
2024-04-07 16:50;89
2024-04-07 17:00;83
2024-04-07 17:10;76
2024-04-07 17:20;68
2024-04-07 17:30;60
2024-04-07 17:40;51
2024-04-07 17:50;42
2024-04-07 18:00;32
2024-04-07 18:10;23